When you browse on this site, cookies collect data to enhance your experience and personalize the content and advertising you see.
Visit our Privacy Policy to learn more. By continuing to use the site, you agree to this use of cookies and data.
  • In Hungary
  • List of Countries
  • For 7 days
  • Water Temperature
  • Weather Map
  • News
  • Weather Widgets
  • user-avatar
    Login

    Hourly Weather Portsmouth

    Today, 20 November, Wednesday

    Time Temperature Precipitation Wind Pressure Humidity
    00:00 +9°C° 0 mm 2 mps 758 mmHg 72%
    01:00 +9°C° 0 mm 2 mps 758 mmHg 72%
    02:00 +9°C° 0 mm 2 mps 758 mmHg 73%
    03:00 +9°C° 0 mm 3 mps 758 mmHg 74%
    04:00 +8°C° 0 mm 3 mps 759 mmHg 76%
    05:00 +8°C° 0 mm 3 mps 759 mmHg 77%
    06:00 +8°C° 0 mm 3 mps 760 mmHg 79%
    07:00 +6°C° 0 mm 4 mps 760 mmHg 80%
    08:00 +7°C° 0 mm 4 mps 761 mmHg 73%
    09:00 +8°C° 0 mm 5 mps 761 mmHg 67%
    10:00 +10°C° 0 mm 5 mps 762 mmHg 60%
    11:00 +10°C° 0 mm 5 mps 762 mmHg 57%
    12:00 +10°C° 0 mm 6 mps 762 mmHg 55%
    13:00 +11°C° 0 mm 6 mps 762 mmHg 52%
    14:00 +11°C° 0 mm 6 mps 762 mmHg 53%
    15:00 +10°C° 0 mm 6 mps 763 mmHg 54%
    16:00 +10°C° 0 mm 6 mps 763 mmHg 55%
    17:00 +9°C° 0 mm 6 mps 764 mmHg 57%
    18:00 +8°C° 0 mm 6 mps 764 mmHg 59%
    19:00 +8°C° 0 mm 5 mps 765 mmHg 61%
    20:00 +7°C° 0 mm 5 mps 765 mmHg 61%
    21:00 +7°C° 0 mm 5 mps 766 mmHg 61%
    22:00 +7°C° 0 mm 5 mps 766 mmHg 61%
    23:00 +6°C° 0 mm 5 mps 766 mmHg 62%

    Tomorrow, 21 November, Thursday

    Time Temperature Precipitation Wind Pressure Humidity
    00:00 +6°C° 0 mm 5 mps 766 mmHg 64%
    01:00 +6°C° 0 mm 5 mps 766 mmHg 65%
    02:00 +5°C° 0 mm 5 mps 766 mmHg 67%
    03:00 +5°C° 0 mm 5 mps 766 mmHg 68%
    04:00 +5°C° 0 mm 5 mps 767 mmHg 69%
    05:00 +3°C° 0 mm 5 mps 767 mmHg 70%
    06:00 +3°C° 0 mm 5 mps 767 mmHg 70%
    07:00 +4°C° 0 mm 4 mps 768 mmHg 71%
    08:00 +5°C° 0 mm 4 mps 768 mmHg 66%
    09:00 +6°C° 0 mm 4 mps 768 mmHg 62%
    10:00 +7°C° 0 mm 4 mps 768 mmHg 57%
    11:00 +9°C° 0 mm 3 mps 767 mmHg 53%
    12:00 +10°C° 0 mm 3 mps 767 mmHg 50%
    13:00 +12°C° 0 mm 2 mps 766 mmHg 47%
    14:00 +12°C° 0 mm 2 mps 766 mmHg 49%
    15:00 +12°C° 0 mm 2 mps 766 mmHg 51%
    16:00 +12°C° 0 mm 2 mps 765 mmHg 53%
    17:00 +10°C° 0 mm 2 mps 765 mmHg 56%
    18:00 +10°C° 0 mm 2 mps 765 mmHg 59%
    19:00 +9°C° 0 mm 3 mps 765 mmHg 63%
    20:00 +9°C° 0 mm 3 mps 765 mmHg 64%
    21:00 +7°C° 0 mm 4 mps 765 mmHg 66%
    22:00 +7°C° 0 mm 4 mps 764 mmHg 68%
    23:00 +7°C° 0 mm 5 mps 764 mmHg 68%

    Day after tomorrow, 22 November, Friday

    Time Temperature Precipitation Wind Pressure Humidity
    00:00 +8°C° 0 mm 5 mps 764 mmHg 69%
    01:00 +8°C° 0 mm 5 mps 763 mmHg 70%
    02:00 +8°C° 0 mm 5 mps 763 mmHg 71%
    03:00 +8°C° 0 mm 6 mps 762 mmHg 72%
    04:00 +8°C° 0 mm 6 mps 761 mmHg 73%
    05:00 +8°C° 0 mm 6 mps 761 mmHg 75%
    06:00 +8°C° 0 mm 6 mps 761 mmHg 76%
    07:00 +8°C° 0 mm 6 mps 761 mmHg 78%
    08:00 +10°C° 0 mm 6 mps 761 mmHg 73%
    09:00 +11°C° 0 mm 7 mps 761 mmHg 69%
    10:00 +14°C° 0 mm 7 mps 761 mmHg 65%
    11:00 +15°C° 0 mm 6 mps 760 mmHg 63%
    12:00 +16°C° 0 mm 6 mps 759 mmHg 60%
    13:00 +17°C° 0 mm 5 mps 758 mmHg 58%
    14:00 +16°C° 0 mm 5 mps 758 mmHg 59%
    15:00 +16°C° 0 mm 5 mps 758 mmHg 59%
    16:00 +16°C° 0 mm 5 mps 758 mmHg 60%
    17:00 +16°C° 0 mm 5 mps 759 mmHg 63%
    18:00 +15°C° 0 mm 5 mps 759 mmHg 66%
    19:00 +14°C° 0 mm 5 mps 760 mmHg 69%
    20:00 +14°C° 0 mm 4 mps 760 mmHg 69%
    21:00 +13°C° 0 mm 4 mps 761 mmHg 70%
    22:00 +13°C° 0 mm 4 mps 761 mmHg 71%
    23:00 +12°C° 0 mm 4 mps 762 mmHg 64%

    23 November, Saturday

    Time Temperature Precipitation Wind Pressure Humidity
    00:00 +11°C° 0 mm 4 mps 762 mmHg 56%
    01:00 +9°C° 0 mm 5 mps 762 mmHg 49%
    02:00 +8°C° 0 mm 4 mps 762 mmHg 49%
    03:00 +7°C° 0 mm 4 mps 762 mmHg 49%
    04:00 +7°C° 0 mm 4 mps 762 mmHg 50%
    05:00 +6°C° 0 mm 4 mps 763 mmHg 49%
    06:00 +7°C° 0 mm 3 mps 763 mmHg 47%
    07:00 +7°C° 0 mm 3 mps 763 mmHg 46%
    08:00 +7°C° 0 mm 3 mps 763 mmHg 46%
    09:00 +8°C° 0 mm 2 mps 763 mmHg 46%
    10:00 +9°C° 0 mm 2 mps 763 mmHg 46%
    11:00 +9°C° 0 mm 2 mps 762 mmHg 45%
    12:00 +10°C° 0 mm 2 mps 762 mmHg 44%
    13:00 +10°C° 0 mm 2 mps 761 mmHg 43%
    14:00 +10°C° 0 mm 2 mps 760 mmHg 47%
    15:00 +10°C° 0 mm 3 mps 760 mmHg 51%
    16:00 +9°C° 0 mm 3 mps 759 mmHg 55%
    17:00 +10°C° 0.3 mm 4 mps 758 mmHg 64%
    18:00 +10°C° 0.3 mm 4 mps 758 mmHg 73%
    19:00 +9°C° 0.3 mm 5 mps 757 mmHg 81%
    20:00 +10°C° 0.9 mm 5 mps 756 mmHg 86%
    21:00 +12°C° 0.9 mm 5 mps 755 mmHg 91%
    22:00 +13°C° 0.9 mm 6 mps 754 mmHg 96%
    23:00 +14°C° 3.1 mm 6 mps 753 mmHg 96%

    24 November, Sunday

    Time Temperature Precipitation Wind Pressure Humidity
    00:00 +14°C° 3.1 mm 6 mps 751 mmHg 95%
    01:00 +15°C° 3.1 mm 6 mps 750 mmHg 95%
    02:00 +14°C° 1.3 mm 7 mps 750 mmHg 93%
    03:00 +12°C° 1.3 mm 7 mps 749 mmHg 90%
    04:00 +11°C° 1.3 mm 7 mps 749 mmHg 88%
    05:00 +10°C° 0.1 mm 7 mps 750 mmHg 87%
    06:00 +9°C° 0.1 mm 7 mps 751 mmHg 86%
    07:00 +8°C° 0.1 mm 7 mps 752 mmHg 85%
    08:00 +9°C° 0 mm 8 mps 753 mmHg 79%
    09:00 +9°C° 0 mm 8 mps 753 mmHg 73%
    10:00 +9°C° 0 mm 8 mps 754 mmHg 67%
    11:00 +9°C° 0 mm 8 mps 754 mmHg 64%
    12:00 +9°C° 0 mm 7 mps 754 mmHg 61%
    13:00 +9°C° 0 mm 7 mps 754 mmHg 58%
    14:00 +9°C° 0 mm 6 mps 755 mmHg 58%
    15:00 +9°C° 0 mm 6 mps 755 mmHg 58%
    16:00 +9°C° 0 mm 5 mps 755 mmHg 58%
    17:00 +9°C° 0 mm 5 mps 756 mmHg 57%
    18:00 +8°C° 0 mm 5 mps 757 mmHg 56%
    19:00 +7°C° 0 mm 5 mps 758 mmHg 55%
    20:00 +7°C° 0 mm 5 mps 758 mmHg 55%
    21:00 +5°C° 0 mm 6 mps 759 mmHg 54%
    22:00 +5°C° 0 mm 6 mps 759 mmHg 54%
    23:00 +4°C° 0 mm 6 mps 759 mmHg 58%

    25 November, Monday

    Time Temperature Precipitation Wind Pressure Humidity
    00:00 +4°C° 0 mm 6 mps 760 mmHg 61%
    01:00 +4°C° 0 mm 6 mps 760 mmHg 64%
    02:00 +3°C° 0 mm 5 mps 760 mmHg 65%
    03:00 +3°C° 0 mm 5 mps 760 mmHg 66%
    04:00 +3°C° 0 mm 5 mps 761 mmHg 67%
    05:00 +3°C° 0 mm 5 mps 761 mmHg 68%
    06:00 +3°C° 0 mm 5 mps 762 mmHg 69%
    07:00 +2°C° 0 mm 5 mps 762 mmHg 70%
    08:00 +4°C° 0 mm 4 mps 763 mmHg 66%
    09:00 +5°C° 0 mm 4 mps 763 mmHg 62%
    10:00 +6°C° 0 mm 4 mps 763 mmHg 58%
    11:00 +7°C° 0 mm 4 mps 763 mmHg 56%
    12:00 +7°C° 0 mm 4 mps 763 mmHg 54%
    13:00 +9°C° 0 mm 3 mps 763 mmHg 52%
    14:00 +9°C° 0 mm 3 mps 763 mmHg 53%
    15:00 +9°C° 0 mm 3 mps 763 mmHg 54%
    16:00 +9°C° 0 mm 2 mps 763 mmHg 55%
    17:00 +8°C° 0 mm 2 mps 763 mmHg 58%
    18:00 +8°C° 0 mm 1 mps 764 mmHg 60%
    19:00 +8°C° 0 mm 1 mps 764 mmHg 63%
    20:00 +7°C° 0 mm 1 mps 764 mmHg 64%
    21:00 +7°C° 0 mm 1 mps 765 mmHg 66%
    22:00 +7°C° 0 mm 1 mps 765 mmHg 67%
    23:00 +6°C° 0 mm 1 mps 765 mmHg 69%
    Show more